User: anonymous   Login
Location: South Range
(44.4886°N, 65.7879°W)
Time: 18:14:25
(UTC-04:00)
Language:

Iridium 56 - Orbit

View from above orbital plane
View from above orbital plane
View from above satellite
View from above satellite

Ground track
Ground track

The orbit data is extracted from the following two-line orbital elements,

1 25170U 98010B   15028.44393240  .00000314  00000-0  10494-3 0  8402
2 25170 086.3987 354.4155 0001878 100.9895 048.9771 14.34210957886959
Epoch (UTC): 28 January 2015 10:39:15
Eccentricity: 0.0001878
inclination: 86.3987°
perigee height: 776 km
apogee height: 779 km
right ascension of ascending node: 354.4155°
argument of perigee: 100.9895°
revolutions per day: 14.34210957
mean anomaly at epoch: 48.9771°
orbit number at epoch: 88695

The dashed part of the orbit path shows where the satellite is in the earth's shadow,  

DLR